Hauptseite
METAR-TAF:

METAR-TAF

Flughäfen :

CFB Gagetown

Gagetown, Neubraunschweig, Kanada

Breite: 45-50N, Länge: 066-26W, Höhe: 51 m

Beobachtung

Neuester Wetterbericht von vor 1 Stunde und 1 Minuten, um 01:00 UTC
Wind 6 kt aus Südwest
Temperatur 0°C
Luftfeuchtigkeit 86%
Luftdruck 1022 hPa
Sichtweite: 14.5 km
Himmel klar

METAR: CYCX 160100Z AUTO 23006KT 9SM CLR 00/M02 A3019 RMK SLP227

Zeit: 22:01 (02:01 UTC)


TAF: fehlend

Wetterbeobachtungen und Prognosen von mehr als 4000 Flughäfen (METAR und TAF Bericht).

Die verfügbaren Stationen werden durch gelbe und rote Markierungen auf der Karte dargestellt.

Führen Sie die Maus auf sie, um den Namen der Station zu sehen.

Darauf klicken, um die Beobachtung von Wetterbeobachtungen und Prognosen zu sehen.

Um die Karte zu ändern : klicken Sie auf den grünen Tasten mit einem schwarzen Kreuz Zum Vergrößern, auf den grünen Button mit einem Gedankenstrich zu verkleinern, oder auf die grünen Pfeile für benachbarte Karten.


METAR-TAF: